Showing default

COSMOS 2095, 20740

Orbit data source: Space-Track

COSMOS 2095, 20740 is a payload satellite owned by UNKS (CIS) in LEO that was launched on Wed, 08 Aug 1990 UTC via a TSIKLON-3 launch vehicle from the Plesetsk Missile And Space Complex (PKMTR). Payload-class satellites include a variety of spacecraft equipped with specific instruments for various scientific and technological missions. These include communications satellites like Starlink; space stations such as the ISS; scientific satellites like the Hubble; Earth observation satellites from companies like Planet Labs, Umbra, and HawkEye 360; GPS; miniature CubeSats for education and research; and military/defense satellites.

Loading next visibility...
Identifier
20740, 1990-070F
Orbit
LEO
Last TLE update
8 hours ago
Origin
Manufacturer
NPO PM
Mission
Defense Communications
Bus & Motor
STRELA-3, Unknown motor
Mass
225 kg wet, 225 kg dry
Launch date (UTC)
1990-08-08 (35 years ago)
Launch vehicle
TSIKLON-3
Launch site
Plesetsk Missile And Space Complex (PKMTR)
Object type
Payload
Rocket body
Debris
Shape & HBR
Cyl, 1.6 m
Radar Cross Section
1.257 m², Large (>1 m²)

Expand to show TLE details & history

TLE from 8 hours ago
0 COSMOS 2095
1 20740U 90070F   25183.85048280  .00000032  00000-0  10998-3 0  9998
2 20740  82.5735 132.1809 0020698  92.2237 329.1494 12.66129599612820
Epoch: 2025-07-02T20:24Z
TLE epoch observation values (Epoch: 2025-07-02T20:24:41.713Z)
Latitude
60.4749°
Longitude
-81.87956°
Altitude
1,394.198 km
Speed
7.175 km/s
True Right ascension
09h 41m 40s
True Declination
60° 20' 22"
Sunlit
Object was in daylight at epoch
Visualization orbit readout
Latitude
-54.30662°
Longitude
95.0555°
Altitude
1,431.664 km
Speed
7.139 km/s
Apparent Right ascension
01h 15m 46s
Apparent Declination
-61° 42' 39"
Sunlit
Object is in full shadow
Visualization observer readout
Local Sidereal Time
16:40:02
Azimuth
142.721° SSE
Elevation
-52.51°
Doppler factor
1
Orbital elements
Apogee altitude
1,411.151 km
Perigee altitude
1,378.973 km
Semi-major axis
7,773.199 km
Eccentricity
0.00207
Inclination
82.5735°
RAAN
132.1809°
Arg. of periapsis
92.2237°
True anomaly
Unknown
Mean anomaly
329.1494°
Eccentric anomaly
Unknown
Mean motion
3.16697 °/min
Orbital period
113.67 mins
BSTAR
0.00010998
Loading maneuver chart data...
Loading SW <> Apogee altitude chart data...
Loading historical data...
Loading historical data...
Loading historical data...
Loading historical data...
Loading historical data...
Loading historical data...
Loading historical data...

COSMOS 2095 Visibility forecast

Observer location: undefined°, undefined°

Span
Click to sort rows by Start time (UTC) header in descending order
Start Az.
Max El. time (UTC)
Max El. Az.
Max El.
End time (UTC)
End Az.
4 mins2025-07-03 06:13:36.878Z44.45° NE2025-07-03 06:15:36.878Z59.124° ENE11.087°2025-07-03 06:17:36.878Z73.699° E
14 mins2025-07-03 08:05:36.878Z1.261° NNE2025-07-03 08:11:36.878Z68.308° E42.152°2025-07-03 08:19:36.878Z160.613° S
10 mins2025-07-03 10:01:36.878Z316.51° NNW2025-07-03 10:05:36.878Z280.464° WNW22.409°2025-07-03 10:11:36.878Z230.642° WSW
14 mins2025-07-03 20:50:36.878Z168.592° S2025-07-03 20:57:36.878Z78.834° E41.78°2025-07-03 21:04:36.878Z14.71° NNE
11 mins2025-07-03 22:47:36.878Z247.278° WSW2025-07-03 22:52:36.878Z293.148° NW23.584°2025-07-03 22:58:36.878Z343.338° N
|